Regional Weather Roundup
Issued by NWS San Diego, CA

Home | Current Version | Previous Version | Text Only | Print | Product List | Glossary On
Versions: 1 2 3 4 5 6 7 8 9 10 11 12 13 14 15 16 17 18 19 20 21 22 23 24 25 26 27 28 29 30 31 32 33 34 35 36 37 38 39 40 41 42 43 44 45 46 47 48 49 50
000
ASUS46 KSGX 191211
RWRSGX

SAN DIEGO HOURLY WEATHER ROUNDUP
NATIONAL WEATHER SERVICE SAN DIEGO CA
400 AM PST MON FEB 19 2018

NOTE: "FAIR" INDICATES FEW OR NO CLOUDS BELOW 12,000 FEET WITH NO
SIGNIFICANT WEATHER AND/OR OBSTRUCTIONS TO VISIBILITY.

CAZ042-043-060-061-PZZ750-775-191300-

GREATER SAN DIEGO AREA

CITY           SKY/WX    TMP DP  RH WIND       PRES   REMARKS
SAN DIEGO AP   MOCLDY    57  40  52 W17G26    29.92S
NATIONAL CITY    N/A     56  44  63 S2        29.91F
CHULA VISTA      N/A     55  42  60 W7        29.82S
IMPERIAL BEACH CLOUDY    57  40  52 W20G26    29.91F
BROWN FIELD    CLOUDY    52  41  66 W8        29.90S
MIRAMAR MCAS   CLOUDY    57  38  48 W14       29.88F
MONTGOMERY FLD CLOUDY    54  38  54 W14       29.89S
GILLESPIE FLD  CLOUDY    54  39  58 SW5G12    29.88F

$$

NORTH SAN DIEGO COUNTY

CITY           SKY/WX    TMP DP  RH WIND       PRES   REMARKS
CAMP PENDLETON MOCLDY    53  40  61 SW9       29.85F
OCEANSIDE AP   CLOUDY    55  39  54 W15       29.85F
OCEANSIDE HBR    N/A     55  45  68 W18       29.88F
VISTA            N/A     52  42  68 SW1       29.84F
CARLSBAD       CLOUDY    54  41  61 W15G23    29.86S
DEL MAR          N/A     54  44  67 CALM      29.90S
LA JOLLA SCRIP   N/A     55  43  64 W20       29.89S
FALLBROOK        N/A     50  45  81 SW1       29.87S
ESCONDIDO        N/A     52  42  68 W9        29.87F
SAN MARCOS       N/A     52  42  69 NW8       29.89F
POWAY            N/A     52  41  67 CALM      29.89S

$$

EAST SAN DIEGO COUNTY

CITY           SKY/WX    TMP DP  RH WIND       PRES   REMARKS
RAMONA         CLOUDY    48  40  73 W17       29.86F
SANTEE LAKES     N/A     53  42  66 SW3       29.88F
LA MESA          N/A     52  41  65 W3        29.82F
JAMUL            N/A     47  43  84 CALM      29.89S
DESCANSO N       N/A     37  35  94 SW6       29.79R WCI  32
CAMPO            N/A     43  40  89 W23G37    29.77F

$$

ORANGE COUNTY AND THE LOS ANGELES BASIN

CITY           SKY/WX    TMP DP  RH WIND       PRES   REMARKS
JOHN WAYNE AP  MOCLDY    54  41  61 SW7       29.83F
LAKE FOREST FR   N/A     49  38  64 W2        29.71F
HUNTINGTON BCH   N/A     53  44  70 W7        29.83F
LOS ALAMITOS   MOCLDY    52  41  65 W7        29.81F
FULLERTON      MOCLDY    53  42  66 VRB5      29.80F
LONG BEACH     PTCLDY    54  41  61 NW7       29.81F
L.A. AP        PTCLDY    52  33  48 N10       29.83R
L.A. DOWNTOWN  MOCLDY    52  30  43 MISG      29.81S

$$

THE INLAND EMPIRE

CITY           SKY/WX    TMP DP  RH WIND       PRES   REMARKS
CORONA         MOCLDY    51  38  60 SW8       29.82F
CHINO          CLOUDY    52  40  63 SW9       29.82F
ONTARIO        MOCLDY    49  39  68 SW6       29.81S
SAN BERNARDINO FAIR      49  38  68 W12       29.81S
RIVERSIDE AP   MOCLDY    50  39  66 SW10      29.82S
MORENO VALLEY    N/A     46  45  95 W7        27.94S
MARCH ARB      CLOUDY    47  43  86 W3        29.80S
HORSETHIEF CYN   N/A     48  32  54 SE3       29.81F
PERRIS           N/A     47  44  89 CALM      29.76S
HEMET EAST       N/A     45  38  76 SW1       29.87R
FRENCH VALLEY  CLOUDY    48  39  71 SW8       29.83S
TEMECULA         N/A     49  45  85 SW5       29.89R

$$

SAN BERNARDINO AND RIVERSIDE COUNTY MOUNTAINS

CITY           SKY/WX    TMP DP  RH WIND       PRES   REMARKS
BIG BEAR AP      N/A     28  21  74 SW16G28   29.67R WCI  17
ANGELUS OAKS     N/A     31  26  84 SW2       29.68F

$$

SOUTHERN DESERT INCLUDING THE COACHELLA VALLEY

CITY           SKY/WX    TMP DP  RH WIND       PRES   REMARKS
PALM SPRINGS   CLEAR     58  32  37 SE21G30   29.65F
THOUSAND PALMS   N/A     58  34  41 NE14      29.62F
PALM DESERT      N/A     59  31  34 CALM      29.16S
THERMAL        MOCLDY    62  31  31 W31G44    29.68F HAZE
BLYTHE         CLEAR     58  39  49 SW13      29.70S
IMPERIAL AP    CLEAR     60  41  49 W18G28    29.73F
EL CENTRO NAS  LGT RAIN  60  39  45 W14       29.76F
YUMA AZ        CLEAR     50  37  61 CALM      29.74S

$$

UPPER DESERT

CITY           SKY/WX    TMP DP  RH WIND       PRES   REMARKS
VICTORVILLE AP CLOUDY    37  23  56 W20G25    29.78R WCI  27
HESPERIA         N/A     37  25  61 NW10      29.81R WCI  30
APPLE VALLEY     N/A     39  25  58 N18       29.82R WCI  29
PALMDALE       CLOUDY    37  24  59 W28G33    29.83R WCI  25
LANCASTER      CLEAR     35  24  64 W18G31    29.83R WCI  24
EDWARDS AFB    PTCLDY    38  21  49 W14G29    29.80R WCI  30
DAGGETT        CLOUDY    44  25  47 W40G49    29.72R
29 PALMS N     MOCLDY    45  28  51 NW22G29   29.76R
NEEDLES        CLEAR     56  33  42 W17       29.65S

$$

REGIONAL REPORTS

CITY           SKY/WX    TMP DP  RH WIND       PRES   REMARKS
SANTA BARBARA  CLEAR     48  27  44 NW17G25   29.90F
SANDBERG       MOCLDY    26  21  81 N25G36    29.79S WCI  11
LAS VEGAS NV   PTCLDY    49  17  28 SW29G39   29.56R
PHOENIX AZ     MOCLDY    61  51  70 SW8       29.69F
TIJUANA        CLOUDY    52  39  62 SW8       29.93S
ENSENADA NW      N/A     54  32  42 N7        29.85F

$$

OFFSHORE ISLANDS

CITY           SKY/WX    TMP DP  RH WIND       PRES   REMARKS
CATALINA ARPT  PTCLDY    46  35  65 W26G36    29.82F
SAN NICOLAS IS PTCLDY    50  46  86 NW28G40   29.92S

$$

MARINE AND OFFSHORE BUOY REPORTS

STATION/POSITION SKY/WX   TEMP    WIND        PRES    VSBY  SWELL
                          AIR SEA DIR/SP/G                  HT/PER/DIR
                          (F)     (DEG/KT/KT) (MB)    (MI)  (FT/S/D)
TANNER BANKS               56 60              1013.9F
S CLEMENTE BASIN           56 62  290/ 25/ 31 1012.5F         2/270/12
SAN NICOLAS IS.               58                N/A           3/310/11
SO. S. ROSA ISLA           52 58  320/ 29/ 33 1013.6F         5/270/14
W. S. BARBARA CH           51 58  320/ 27/ 37 1014.0
M. S. BARBARA CH           51 57  310/ 21/ 27 1013.9
S. MONICA BASIN               60  300/ 29/ 37 1010.7
S PEDRO CHANNEL               60                N/A           2/250/11
CMP PENDLETON NS              61                N/A           2/210/13
OCEANSIDE OFFSHR              61                N/A           2/210/13
TORREY PINES OTR              61                N/A           2/210/13
SAN DIEGO BAY                 65              1013.2F
POINT LOMA SOUTH              61                N/A           2/210/13

$$




USA.gov is the U.S. government's official web portal to all federal, state and local government web resources and services.